This is the latest recevied weather packets stored in our database for station/object VE6EN. If no packets are shown the sender has not sent any weather packets the latest 10 day(s).
| Time | Temp. | Humidity | Pressure | Rain* | Wind** | Luminosity | Snow |
|---|---|---|---|---|---|---|---|
| 1787448603 | 25° C | 46% | 1012.7 hPa | 0 mm | - | - | - |
| 1787448003 | 25° C | 45% | 1012.8 hPa | 0 mm | - | - | - |
| 1787447403 | 25.56° C | 44% | 1012.8 hPa | 0 mm | - | - | - |
| 1787446804 | 26.11° C | 43% | 1012.7 hPa | 0 mm | - | - | - |
| 1787446203 | 26.67° C | 41% | 1012.6 hPa | 0 mm | - | - | - |
| 1787445604 | 27.22° C | 39% | 1012.6 hPa | 0 mm | - | - | - |
| 1787445010 | 27.22° C | 37% | 1012.8 hPa | 0 mm | - | - | - |
| 1787444403 | 27.22° C | 36% | 1012.9 hPa | 0 mm | - | - | - |
| 1787443804 | 27.22° C | 36% | 1013 hPa | 0 mm | - | - | - |
| 1787443203 | 27.22° C | 35% | 1013.1 hPa | 0 mm | - | - | - |
| 1787442603 | 27.22° C | 34% | 1013.1 hPa | 0 mm | - | - | - |
| 1787442004 | 27.78° C | 35% | 1013.1 hPa | 0 mm | - | - | - |
| 1787441404 | 27.78° C | 35% | 1013.3 hPa | 0 mm | - | - | - |
| 1787440804 | 27.78° C | 37% | 1013.3 hPa | 0 mm | - | - | - |
| 1787440204 | 27.22° C | 33% | 1013.3 hPa | 0 mm | - | - | - |
| 1787439604 | 27.22° C | 35% | 1013.4 hPa | 0 mm | - | - | - |
| 1787439004 | 27.22° C | 35% | 1013.6 hPa | 0 mm | - | - | - |
| 1787438403 | 27.22° C | 34% | 1013.8 hPa | 0 mm | - | - | - |
| 1787437804 | 27.22° C | 35% | 1013.9 hPa | 0 mm | - | - | - |
| 1787437203 | 26.67° C | 35% | 1014 hPa | 0 mm | - | - | - |
| 1787436605 | 26.67° C | 39% | 1014 hPa | 0 mm | - | - | - |
| 1787436003 | 26.67° C | 35% | 1014.1 hPa | 0 mm | - | - | - |
| 1787435404 | 26.67° C | 39% | 1014.3 hPa | 0 mm | - | - | - |
| 1787434803 | 26.67° C | 41% | 1014.4 hPa | 0 mm | - | - | - |
| 1787434205 | 26.11° C | 39% | 1014.5 hPa | 0 mm | - | - | - |
* Rain latest hour (hover to see other rain measurements)
** Current wind speed in m/s (hover to see current wind gust speed)